{"data":{"norad_id":50827,"epoch":"2026-05-25T03:11:07.631808Z","epoch_age_seconds":60006,"freshness":"FRESH","line1":"1 50827U 22001AA  26145.13272722 -.00000534  00000+0 -15498-4 0  9995","line2":"2 50827  53.2108 185.9561 0001155  79.4413 280.6709 15.08839889241949","mean_motion":15.08839889,"eccentricity":0.0001155,"inclination_deg":53.2108,"raan_deg":185.9561,"arg_perigee_deg":79.4413,"mean_anomaly_deg":280.6709,"bstar":-1.5498e-5,"rev_number":24194,"period_min":95.437561698768,"perigee_km":538.94471302261,"apogee_km":540.54274347083,"semimajor_km":6917.8807282467,"source":"CELESTRAK","updated_at":"2026-05-25T13:38:16.878718Z"}}